START_TIME,STEP,MOV.,A46,t_acc.,A13,t_acc.,M47,t_acc.,A17,t_acc.,A28,t_acc.,M38,t_acc.
1979-08-06 06:00:24.040 ,0,1,,0,1.,4.8,0.,4.8,,0,0.,4.8,0.,4.8
1979-08-06 06:00:28.840 ,0,1,,0,3.,4.8,0.,4.8,,0,0.,4.8,0.,4.8
1979-08-06 06:00:33.640 ,0,1,,0,3.,4.8,0.,4.8,,0,0.,4.8,0.,4.8
1979-08-06 06:00:38.440 ,0,1,,0,0.,4.8,0.,4.8,,0,0.,4.8,1.,4.8
1979-08-06 06:00:43.240 ,0,1,,0,0.,4.8,0.,4.8,,0,0.,4.8,0.,4.8
1979-08-06 06:00:48.040 ,4,1,,0,0.,4.8,0.,4.8,,0,0.,4.8,0.,4.8
1979-08-06 06:00:52.840 ,4,1,,0,0.,4.8,0.,4.8,,0,0.,4.8,0.,4.8
1979-08-06 06:00:57.640 ,4,1,,0,0.,4.8,0.,4.8,,0,0.,4.8,0.,4.8
1979-08-06 06:01:02.440 ,4,1,,0,3.,4.8,0.,4.8,,0,0.,4.8,1.,4.8
1979-08-06 06:01:07.240 ,4,1,,0,6.,4.8,0.,4.8,,0,0.,4.8,0.,4.8
1979-08-06 06:01:12.040 ,7,1,,0,3.,4.8,0.,4.8,,0,0.,4.8,1.,4.8
1979-08-06 06:01:16.840 ,7,1,,0,4.,4.8,0.,4.8,,0,0.,4.8,0.,4.8
1979-08-06 06:01:21.640 ,7,1,,0,3.,4.8,0.,4.8,,0,0.,4.8,0.,4.8
1979-08-06 06:01:26.440 ,7,1,,0,0.,4.8,0.,4.8,,0,0.,4.8,0.,4.8
1979-08-06 06:01:31.240 ,7,1,,0,0.,4.8,0.,4.8,,0,0.,4.8,0.,4.8
1979-08-06 06:01:36.040 ,3,1,,0,0.,4.8,0.,4.8,,0,0.,4.8,0.,4.8
1979-08-06 06:01:40.840 ,3,1,,0,0.,4.8,0.,4.8,,0,0.,4.8,0.,4.8
1979-08-06 06:01:45.640 ,3,1,,0,1.,4.8,0.,4.8,,0,0.,4.8,0.,4.8
1979-08-06 06:01:50.440 ,3,1,,0,4.,4.8,0.,4.8,,0,0.,4.8,0.,4.8
1979-08-06 06:01:55.240 ,3,1,,0,2.,4.8,0.,4.8,,0,0.,4.8,0.,4.8
1979-08-06 06:02:00.040 ,0,1,,0,3.,4.8,0.,4.8,,0,0.,4.8,1.,4.8
1979-08-06 06:02:04.840 ,0,1,,0,5.,4.8,0.,4.8,,0,0.,4.8,0.,4.8
1979-08-06 06:02:09.640 ,0,1,,0,2.,4.8,0.,4.8,,0,0.,4.8,0.,4.8
1979-08-06 06:02:14.440 ,0,1,,0,0.,4.8,0.,4.8,,0,0.,4.8,0.,4.8
1979-08-06 06:02:19.240 ,0,1,,0,0.,4.8,0.,4.8,,0,0.,4.8,0.,4.8
1979-08-06 06:02:24.040 ,4,1,,0,0.,4.8,0.,4.8,,0,0.,4.8,0.,4.8
1979-08-06 06:02:28.840 ,4,1,,0,0.,4.8,0.,4.8,,0,0.,4.8,0.,4.8
1979-08-06 06:02:33.640 ,4,1,,0,1.,4.8,0.,4.8,,0,0.,4.8,0.,4.8
1979-08-06 06:02:38.440 ,4,1,,0,4.,4.8,0.,4.8,,0,0.,4.8,0.,4.8
1979-08-06 06:02:43.240 ,4,1,,0,4.,4.8,0.,4.8,,0,0.,4.8,0.,4.8
1979-08-06 06:02:48.040 ,7,1,,0,1.,4.8,0.,4.8,,0,0.,4.8,0.,4.8
1979-08-06 06:02:52.840 ,7,1,,0,2.,4.8,0.,4.8,,0,0.,4.8,1.,4.8
1979-08-06 06:02:57.640 ,7,1,,0,4.,4.8,0.,4.8,,0,0.,4.8,0.,4.8
1979-08-06 06:03:02.440 ,7,1,,0,0.,4.8,0.,4.8,,0,0.,4.8,0.,4.8
1979-08-06 06:03:07.240 ,7,1,,0,0.,4.8,0.,4.8,,0,0.,4.8,0.,4.8
1979-08-06 06:03:12.040 ,3,1,,0,0.,4.8,0.,4.8,,0,0.,4.8,0.,4.8
1979-08-06 06:03:16.840 ,3,1,,0,0.,4.8,0.,4.8,,0,0.,4.8,0.,4.8
1979-08-06 06:03:21.640 ,3,1,,0,1.,4.8,0.,4.8,,0,0.,4.8,0.,4.8
1979-08-06 06:03:26.440 ,3,1,,0,3.,4.8,0.,4.8,,0,0.,4.8,0.,4.8
1979-08-06 06:03:31.240 ,3,1,,0,3.,4.8,0.,4.8,,0,0.,4.8,1.,4.8
1979-08-06 06:03:36.040 ,0,1,,0,1.,4.8,0.,4.8,,0,0.,4.8,0.,4.8
1979-08-06 06:03:40.840 ,0,1,,0,1.,4.8,0.,4.8,,0,0.,4.8,0.,4.8
1979-08-06 06:03:45.640 ,0,1,,0,0.,4.8,0.,4.8,,0,0.,4.8,0.,4.8
1979-08-06 06:03:50.440 ,0,1,,0,0.,4.8,0.,4.8,,0,0.,4.8,0.,4.8
1979-08-06 06:03:55.240 ,0,1,,0,0.,4.8,0.,4.8,,0,0.,4.8,0.,4.8
1979-08-06 06:04:00.040 ,4,1,,0,1.,4.8,0.,4.8,,0,0.,4.8,0.,4.8
1979-08-06 06:04:04.840 ,4,1,,0,0.,4.8,0.,4.8,,0,0.,4.8,0.,4.8
1979-08-06 06:04:09.640 ,4,1,,0,1.,4.8,0.,4.8,,0,0.,4.8,0.,4.8
1979-08-06 06:04:14.440 ,4,1,,0,2.,4.8,0.,4.8,,0,0.,4.8,0.,4.8
1979-08-06 06:04:19.240 ,4,1,,0,2.,4.8,0.,4.8,,0,0.,4.8,0.,4.8
1979-08-06 06:04:24.040 ,7,1,,0,4.,4.8,0.,4.8,,0,0.,4.8,0.,4.8
1979-08-06 06:04:28.840 ,7,1,,0,5.,4.8,0.,4.8,,0,0.,4.8,0.,4.8
1979-08-06 06:04:33.640 ,7,1,,0,3.,4.8,0.,4.8,,0,0.,4.8,0.,4.8
1979-08-06 06:04:38.440 ,7,1,,0,0.,4.8,0.,4.8,,0,0.,4.8,0.,4.8
1979-08-06 06:04:43.240 ,7,1,,0,0.,4.8,0.,4.8,,0,0.,4.8,0.,4.8
1979-08-06 06:04:48.040 ,3,1,,0,0.,4.8,0.,4.8,,0,0.,4.8,0.,4.8
1979-08-06 06:04:52.840 ,3,1,,0,0.,4.8,0.,4.8,,0,0.,4.8,0.,4.8
1979-08-06 06:04:57.640 ,3,1,,0,0.,4.8,0.,4.8,,0,0.,4.8,0.,4.8
1979-08-06 06:05:02.440 ,3,1,,0,1.,4.8,0.,4.8,,0,0.,4.8,0.,4.8
1979-08-06 06:05:07.240 ,3,1,,0,6.,4.8,0.,4.8,,0,0.,4.8,1.,4.8
1979-08-06 06:05:12.040 ,0,1,,0,2.,4.8,0.,4.8,,0,0.,4.8,0.,4.8
1979-08-06 06:05:16.840 ,0,1,,0,2.,4.8,0.,4.8,,0,0.,4.8,0.,4.8
1979-08-06 06:05:21.640 ,0,1,,0,3.,4.8,0.,4.8,,0,0.,4.8,1.,4.8
1979-08-06 06:05:26.440 ,0,1,,0,0.,4.8,0.,4.8,,0,0.,4.8,0.,4.8
1979-08-06 06:05:31.240 ,0,1,,0,0.,4.8,0.,4.8,,0,1.,4.8,0.,4.8
1979-08-06 06:05:36.040 ,0,0,,0,0.,4.8,0.,4.8,,0,0.,4.8,0.,4.8
1979-08-06 06:05:40.840 ,0,0,,0,0.,4.8,0.,4.8,,0,0.,4.8,0.,4.8
1979-08-06 06:05:45.640 ,0,0,,0,2.,4.8,0.,4.8,,0,0.,4.8,0.,4.8
1979-08-06 06:05:50.440 ,0,0,,0,1.,4.8,0.,4.8,,0,0.,4.8,0.,4.8
1979-08-06 06:05:55.240 ,0,0,,0,4.,4.8,0.,4.8,,0,0.,4.8,0.,4.8
1979-08-06 06:06:00.040 ,0,0,,0,5.,4.8,0.,4.8,,0,0.,4.8,0.,4.8
1979-08-06 06:06:04.840 ,0,0,,0,1.,4.8,0.,4.8,,0,0.,4.8,0.,4.8
1979-08-06 06:06:09.640 ,0,0,,0,5.,4.8,0.,4.8,,0,0.,4.8,0.,4.8
1979-08-06 06:06:14.440 ,0,0,,0,0.,4.8,0.,4.8,,0,0.,4.8,0.,4.8
1979-08-06 06:06:19.240 ,0,0,,0,0.,4.8,0.,4.8,,0,0.,4.8,0.,4.8
1979-08-06 06:06:24.040 ,5,0,,0,0.,4.8,0.,4.8,,0,0.,4.8,0.,4.8
1979-08-06 06:06:28.840 ,5,0,,0,0.,4.8,0.,4.8,,0,0.,4.8,0.,4.8
1979-08-06 06:06:33.640 ,5,0,,0,0.,4.8,0.,4.8,,0,0.,4.8,0.,4.8
1979-08-06 06:06:38.440 ,5,0,,0,2.,4.8,0.,4.8,,0,0.,4.8,0.,4.8
1979-08-06 06:06:43.240 ,5,0,,0,3.,4.8,0.,4.8,,0,0.,4.8,0.,4.8
1979-08-06 06:06:48.040 ,5,0,,0,6.,4.8,0.,4.8,,0,0.,4.8,0.,4.8
1979-08-06 06:06:52.840 ,5,0,,0,1.,4.8,0.,4.8,,0,0.,4.8,1.,4.8
1979-08-06 06:06:57.640 ,5,0,,0,1.,4.8,0.,4.8,,0,0.,4.8,0.,4.8
1979-08-06 06:07:02.440 ,5,0,,0,0.,4.8,0.,4.8,,0,0.,4.8,0.,4.8
1979-08-06 06:07:07.240 ,5,0,,0,0.,4.8,0.,4.8,,0,0.,4.8,0.,4.8
1979-08-06 06:07:12.040 ,4,0,,0,0.,4.8,0.,4.8,,0,0.,4.8,0.,4.8
1979-08-06 06:07:16.840 ,4,0,,0,0.,4.8,0.,4.8,,0,0.,4.8,1.,4.8
1979-08-06 06:07:21.640 ,4,0,,0,0.,4.8,0.,4.8,,0,1.,4.8,0.,4.8
1979-08-06 06:07:26.440 ,4,0,,0,3.,4.8,0.,4.8,,0,0.,4.8,0.,4.8
1979-08-06 06:07:31.240 ,4,0,,0,3.,4.8,0.,4.8,,0,0.,4.8,0.,4.8
1979-08-06 06:07:36.040 ,4,0,,0,4.,4.8,0.,4.8,,0,0.,4.8,0.,4.8
1979-08-06 06:07:40.840 ,4,0,,0,2.,4.8,0.,4.8,,0,0.,4.8,0.,4.8
1979-08-06 06:07:45.640 ,4,0,,0,3.,4.8,0.,4.8,,0,0.,4.8,0.,4.8
1979-08-06 06:07:50.440 ,4,0,,0,0.,4.8,0.,4.8,,0,0.,4.8,0.,4.8
1979-08-06 06:07:55.240 ,4,0,,0,0.,4.8,0.,4.8,,0,0.,4.8,0.,4.8
1979-08-06 06:08:00.040 ,3,0,,0,1.,4.8,0.,4.8,,0,0.,4.8,0.,4.8
1979-08-06 06:08:04.840 ,3,0,,0,0.,4.8,0.,4.8,,0,0.,4.8,0.,4.8
1979-08-06 06:08:09.640 ,3,0,,0,0.,4.8,0.,4.8,,0,0.,4.8,0.,4.8
1979-08-06 06:08:14.440 ,3,0,,0,2.,4.8,0.,4.8,,0,0.,4.8,0.,4.8
1979-08-06 06:08:19.240 ,3,0,,0,2.,4.8,0.,4.8,,0,0.,4.8,1.,4.8
1979-08-06 06:08:24.040 ,3,0,,0,2.,4.8,0.,4.8,,0,0.,4.8,0.,4.8
1979-08-06 06:08:28.840 ,3,0,,0,4.,4.8,0.,4.8,,0,0.,4.8,0.,4.8
1979-08-06 06:08:33.640 ,3,0,,0,5.,4.8,0.,4.8,,0,0.,4.8,0.,4.8
1979-08-06 06:08:38.440 ,3,0,,0,0.,4.8,0.,4.8,,0,0.,4.8,0.,4.8
1979-08-06 06:08:43.240 ,3,0,,0,0.,4.8,0.,4.8,,0,0.,4.8,1.,4.8
1979-08-06 06:08:48.040 ,2,0,,0,0.,4.8,0.,4.8,,0,0.,4.8,0.,4.8
1979-08-06 06:08:52.840 ,2,0,,0,0.,4.8,0.,4.8,,0,0.,4.8,0.,4.8
1979-08-06 06:08:57.640 ,2,0,,0,0.,4.8,0.,4.8,,0,0.,4.8,1.,4.8
1979-08-06 06:09:02.440 ,2,0,,0,5.,4.8,0.,4.8,,0,0.,4.8,0.,4.8
1979-08-06 06:09:07.240 ,2,0,,0,5.,4.8,0.,4.8,,0,0.,4.8,0.,4.8
1979-08-06 06:09:12.040 ,2,0,,0,2.,4.8,0.,4.8,,0,0.,4.8,0.,4.8
1979-08-06 06:09:16.840 ,2,0,,0,5.,4.8,0.,4.8,,0,0.,4.8,0.,4.8
1979-08-06 06:09:21.640 ,2,0,,0,2.,4.8,0.,4.8,,0,0.,4.8,0.,4.8
1979-08-06 06:09:26.440 ,2,0,,0,0.,4.8,0.,4.8,,0,0.,4.8,0.,4.8
1979-08-06 06:09:31.240 ,2,0,,0,0.,4.8,0.,4.8,,0,0.,4.8,0.,4.8
1979-08-06 06:09:36.040 ,1,0,,0,0.,4.8,0.,4.8,,0,0.,4.8,0.,4.8
1979-08-06 06:09:40.840 ,1,0,,0,0.,4.8,0.,4.8,,0,0.,4.8,0.,4.8
1979-08-06 06:09:45.640 ,1,0,,0,0.,4.8,0.,4.8,,0,0.,4.8,0.,4.8
1979-08-06 06:09:50.440 ,1,0,,0,2.,4.8,0.,4.8,,0,0.,4.8,0.,4.8
1979-08-06 06:09:55.240 ,1,0,,0,2.,4.8,0.,4.8,,0,0.,4.8,0.,4.8
1979-08-06 06:10:00.040 ,1,0,,0,4.,4.8,0.,4.8,,0,0.,4.8,1.,4.8
1979-08-06 06:10:04.840 ,1,0,,0,7.,4.8,0.,4.8,,0,0.,4.8,0.,4.8
1979-08-06 06:10:09.640 ,1,0,,0,3.,4.8,0.,4.8,,0,0.,4.8,1.,4.8
1979-08-06 06:10:14.440 ,1,0,,0,0.,4.8,0.,4.8,,0,0.,4.8,0.,4.8
1979-08-06 06:10:19.240 ,1,0,,0,0.,4.8,0.,4.8,,0,0.,4.8,0.,4.8
1979-08-06 06:10:24.040 ,0,0,,0,0.,4.8,0.,4.8,,0,0.,4.8,0.,4.8
1979-08-06 06:10:28.840 ,0,0,,0,0.,4.8,1.,4.8,,0,0.,4.8,0.,4.8
1979-08-06 06:10:33.640 ,0,0,,0,0.,4.8,0.,4.8,,0,0.,4.8,0.,4.8
1979-08-06 06:10:38.440 ,0,0,,0,4.,4.8,0.,4.8,,0,0.,4.8,0.,4.8
1979-08-06 06:10:43.240 ,0,0,,0,3.,4.8,0.,4.8,,0,0.,4.8,0.,4.8
1979-08-06 06:10:48.040 ,0,0,,0,1.,4.8,0.,4.8,,0,0.,4.8,0.,4.8
1979-08-06 06:10:52.840 ,0,0,,0,1.,4.8,0.,4.8,,0,0.,4.8,0.,4.8
1979-08-06 06:10:57.640 ,0,0,,0,4.,4.8,1.,4.8,,0,0.,4.8,1.,4.8
1979-08-06 06:11:02.440 ,0,0,,0,0.,4.8,0.,4.8,,0,0.,4.8,0.,4.8
1979-08-06 06:11:07.240 ,0,0,,0,0.,4.8,0.,4.8,,0,0.,4.8,0.,4.8
1979-08-06 06:11:12.040 ,0,0,,0,0.,4.8,0.,4.8,,0,0.,4.8,1.,4.8
1979-08-06 06:11:16.840 ,0,0,,0,0.,4.8,0.,4.8,,0,0.,4.8,0.,4.8
1979-08-06 06:11:21.640 ,0,0,,0,0.,4.8,0.,4.8,,0,0.,4.8,0.,4.8
1979-08-06 06:11:26.440 ,0,0,,0,2.,4.8,0.,4.8,,0,0.,4.8,0.,4.8
1979-08-06 06:11:31.240 ,0,0,,0,2.,4.8,0.,4.8,,0,0.,4.8,0.,4.8
1979-08-06 06:11:36.040 ,0,0,,0,3.,4.8,0.,4.8,,0,0.,4.8,0.,4.8
1979-08-06 06:11:40.840 ,0,0,,0,0.,4.8,0.,4.8,,0,0.,4.8,0.,4.8
1979-08-06 06:11:45.640 ,0,0,,0,4.,4.8,0.,4.8,,0,0.,4.8,0.,4.8
1979-08-06 06:11:50.440 ,0,0,,0,0.,4.8,0.,4.8,,0,0.,4.8,0.,4.8
1979-08-06 06:11:55.240 ,0,0,,0,0.,4.8,0.,4.8,,0,0.,4.8,0.,4.8
1979-08-06 06:12:00.040 ,1,0,,0,0.,4.8,0.,4.8,,0,0.,4.8,1.,4.8
1979-08-06 06:12:04.840 ,1,0,,0,0.,4.8,0.,4.8,,0,0.,4.8,0.,4.8
1979-08-06 06:12:09.640 ,1,0,,0,0.,4.8,0.,4.8,,0,0.,4.8,0.,4.8
1979-08-06 06:12:14.440 ,1,0,,0,1.,4.8,0.,4.8,,0,0.,4.8,0.,4.8
1979-08-06 06:12:19.240 ,1,0,,0,1.,4.8,0.,4.8,,0,0.,4.8,1.,4.8
1979-08-06 06:12:24.040 ,1,0,,0,2.,4.8,0.,4.8,,0,0.,4.8,0.,4.8
1979-08-06 06:12:28.840 ,1,0,,0,3.,4.8,0.,4.8,,0,0.,4.8,0.,4.8
1979-08-06 06:12:33.640 ,1,0,,0,1.,4.8,0.,4.8,,0,0.,4.8,0.,4.8
1979-08-06 06:12:38.440 ,1,0,,0,0.,4.8,1.,4.8,,0,0.,4.8,0.,4.8
1979-08-06 06:12:43.240 ,1,0,,0,0.,4.8,0.,4.8,,0,0.,4.8,0.,4.8
1979-08-06 06:12:48.040 ,2,0,,0,0.,4.8,0.,4.8,,0,0.,4.8,0.,4.8
1979-08-06 06:12:52.840 ,2,0,,0,0.,4.8,0.,4.8,,0,0.,4.8,0.,4.8
1979-08-06 06:12:57.640 ,2,0,,0,0.,4.8,0.,4.8,,0,0.,4.8,0.,4.8
1979-08-06 06:13:02.440 ,2,0,,0,2.,4.8,0.,4.8,,0,0.,4.8,0.,4.8
1979-08-06 06:13:07.240 ,2,0,,0,2.,4.8,0.,4.8,,0,0.,4.8,0.,4.8
1979-08-06 06:13:12.040 ,2,0,,0,4.,4.8,0.,4.8,,0,0.,4.8,0.,4.8
1979-08-06 06:13:16.840 ,2,0,,0,4.,4.8,0.,4.8,,0,0.,4.8,0.,4.8
1979-08-06 06:13:21.640 ,2,0,,0,5.,4.8,0.,4.8,,0,0.,4.8,0.,4.8
1979-08-06 06:13:26.440 ,2,0,,0,0.,4.8,0.,4.8,,0,0.,4.8,0.,4.8
1979-08-06 06:13:31.240 ,2,0,,0,0.,4.8,0.,4.8,,0,0.,4.8,0.,4.8
1979-08-06 06:13:36.040 ,3,0,,0,1.,4.8,0.,4.8,,0,0.,4.8,0.,4.8
1979-08-06 06:13:40.840 ,3,0,,0,0.,4.8,0.,4.8,,0,0.,4.8,0.,4.8
1979-08-06 06:13:45.640 ,3,0,,0,0.,4.8,0.,4.8,,0,0.,4.8,0.,4.8
1979-08-06 06:13:50.440 ,3,0,,0,3.,4.8,0.,4.8,,0,0.,4.8,2.,4.8
1979-08-06 06:13:55.240 ,3,0,,0,4.,4.8,0.,4.8,,0,0.,4.8,1.,4.8
1979-08-06 06:14:00.040 ,3,0,,0,1.,4.8,0.,4.8,,0,0.,4.8,1.,4.8
1979-08-06 06:14:04.840 ,3,0,,0,5.,4.8,0.,4.8,,0,0.,4.8,0.,4.8
1979-08-06 06:14:09.640 ,3,0,,0,2.,4.8,0.,4.8,,0,0.,4.8,1.,4.8
1979-08-06 06:14:14.440 ,3,0,,0,0.,4.8,0.,4.8,,0,0.,4.8,1.,4.8
1979-08-06 06:14:19.240 ,3,0,,0,0.,4.8,0.,4.8,,0,0.,4.8,0.,4.8
1979-08-06 06:14:24.040 ,4,0,,0,0.,4.8,0.,4.8,,0,0.,4.8,1.,4.8
1979-08-06 06:14:28.840 ,4,0,,0,0.,4.8,0.,4.8,,0,0.,4.8,0.,4.8
1979-08-06 06:14:33.640 ,4,0,,0,1.,4.8,0.,4.8,,0,0.,4.8,0.,4.8
1979-08-06 06:14:38.440 ,4,0,,0,4.,4.8,0.,4.8,,0,0.,4.8,0.,4.8
1979-08-06 06:14:43.240 ,4,0,,0,3.,4.8,0.,4.8,,0,0.,4.8,0.,4.8
1979-08-06 06:14:48.040 ,4,0,,0,5.,4.8,0.,4.8,,0,0.,4.8,0.,4.8
1979-08-06 06:14:52.840 ,4,0,,0,5.,4.8,0.,4.8,,0,0.,4.8,0.,4.8
1979-08-06 06:14:57.640 ,4,0,,0,1.,4.8,0.,4.8,,0,1.,4.8,0.,4.8
1979-08-06 06:15:02.440 ,4,0,,0,0.,4.8,0.,4.8,,0,0.,4.8,1.,4.8
1979-08-06 06:15:07.240 ,4,0,,0,0.,4.8,0.,4.8,,0,0.,4.8,0.,4.8
1979-08-06 06:15:12.040 ,5,0,,0,0.,4.8,0.,4.8,,0,0.,4.8,0.,4.8
1979-08-06 06:15:16.840 ,5,0,,0,1.,4.8,0.,4.8,,0,0.,4.8,0.,4.8
1979-08-06 06:15:21.640 ,5,0,,0,1.,4.8,0.,4.8,,0,0.,4.8,0.,4.8
1979-08-06 06:15:26.440 ,5,0,,0,3.,4.8,0.,4.8,,0,0.,4.8,0.,4.8
1979-08-06 06:15:31.240 ,5,0,,0,1.,4.8,0.,4.8,,0,0.,4.8,1.,4.8
1979-08-06 06:15:36.040 ,5,0,,0,3.,4.8,0.,4.8,,0,0.,4.8,0.,4.8
1979-08-06 06:15:40.840 ,5,0,,0,3.,4.8,0.,4.8,,0,0.,4.8,0.,4.8
1979-08-06 06:15:45.640 ,5,0,,0,7.,4.8,0.,4.8,,0,0.,4.8,0.,4.8
1979-08-06 06:15:50.440 ,5,0,,0,0.,4.8,0.,4.8,,0,0.,4.8,0.,4.8
1979-08-06 06:15:55.240 ,5,0,,0,0.,4.8,0.,4.8,,0,0.,4.8,0.,4.8
1979-08-06 06:16:00.040 ,6,0,,0,1.,4.8,0.,4.8,,0,0.,4.8,0.,4.8
1979-08-06 06:16:04.840 ,6,0,,0,0.,4.8,0.,4.8,,0,0.,4.8,0.,4.8
1979-08-06 06:16:09.640 ,6,0,,0,1.,4.8,0.,4.8,,0,0.,4.8,0.,4.8
1979-08-06 06:16:14.440 ,6,0,,0,4.,4.8,0.,4.8,,0,0.,4.8,0.,4.8
1979-08-06 06:16:19.240 ,6,0,,0,2.,4.8,0.,4.8,,0,0.,4.8,0.,4.8
1979-08-06 06:16:24.040 ,6,0,,0,2.,4.8,0.,4.8,,0,0.,4.8,0.,4.8
1979-08-06 06:16:28.840 ,6,0,,0,5.,4.8,0.,4.8,,0,0.,4.8,0.,4.8
1979-08-06 06:16:33.640 ,6,0,,0,3.,4.8,0.,4.8,,0,0.,4.8,0.,4.8
1979-08-06 06:16:38.440 ,6,0,,0,0.,4.8,0.,4.8,,0,0.,4.8,0.,4.8
1979-08-06 06:16:43.240 ,6,0,,0,0.,4.8,0.,4.8,,0,0.,4.8,0.,4.8
1979-08-06 06:16:48.040 ,7,0,,0,0.,4.8,0.,4.8,,0,0.,4.8,0.,4.8
1979-08-06 06:16:52.840 ,7,0,,0,0.,4.8,0.,4.8,,0,0.,4.8,0.,4.8
1979-08-06 06:16:57.640 ,7,0,,0,1.,4.8,0.,4.8,,0,0.,4.8,0.,4.8
1979-08-06 06:17:02.440 ,7,0,,0,10.,4.8,0.,4.8,,0,0.,4.8,0.,4.8
1979-08-06 06:17:07.240 ,7,0,,0,13.,4.8,0.,4.8,,0,0.,4.8,0.,4.8
1979-08-06 06:17:12.040 ,7,0,,0,14.,4.8,0.,4.8,,0,0.,4.8,0.,4.8
1979-08-06 06:17:16.840 ,7,0,,0,9.,4.8,0.,4.8,,0,0.,4.8,0.,4.8
1979-08-06 06:17:21.640 ,7,0,,0,16.,4.8,0.,4.8,,0,0.,4.8,0.,4.8
1979-08-06 06:17:26.440 ,7,0,,0,1.,4.8,0.,4.8,,0,0.,4.8,0.,4.8
1979-08-06 06:17:31.240 ,7,0,,0,0.,4.8,0.,4.8,,0,0.,4.8,0.,4.8
1979-08-06 06:17:36.040 ,7,0,,0,0.,4.8,0.,4.8,,0,0.,4.8,0.,4.8
1979-08-06 06:17:40.840 ,7,0,,0,0.,4.8,0.,4.8,,0,0.,4.8,0.,4.8
1979-08-06 06:17:45.640 ,7,0,,0,2.,4.8,0.,4.8,,0,0.,4.8,1.,4.8
1979-08-06 06:17:50.440 ,7,0,,0,10.,4.8,0.,4.8,,0,0.,4.8,0.,4.8
1979-08-06 06:17:55.240 ,7,0,,0,10.,4.8,0.,4.8,,0,0.,4.8,0.,4.8
1979-08-06 06:18:00.040 ,7,0,,0,11.,4.8,0.,4.8,,0,0.,4.8,0.,4.8
1979-08-06 06:18:04.840 ,7,0,,0,8.,4.8,0.,4.8,,0,0.,4.8,0.,4.8
1979-08-06 06:18:09.640 ,7,0,,0,11.,4.8,0.,4.8,,0,0.,4.8,0.,4.8
1979-08-06 06:18:14.440 ,7,0,,0,0.,4.8,0.,4.8,,0,0.,4.8,0.,4.8
1979-08-06 06:18:19.240 ,7,0,,0,0.,4.8,0.,4.8,,0,0.,4.8,0.,4.8
1979-08-06 06:18:24.040 ,6,0,,0,0.,4.8,0.,4.8,,0,0.,4.8,0.,4.8
1979-08-06 06:18:28.840 ,6,0,,0,0.,4.8,0.,4.8,,0,0.,4.8,0.,4.8
1979-08-06 06:18:33.640 ,6,0,,0,0.,4.8,0.,4.8,,0,0.,4.8,0.,4.8
1979-08-06 06:18:38.440 ,6,0,,0,5.,4.8,0.,4.8,,0,0.,4.8,0.,4.8
1979-08-06 06:18:43.240 ,6,0,,0,5.,4.8,0.,4.8,,0,0.,4.8,0.,4.8
1979-08-06 06:18:48.040 ,6,0,,0,3.,4.8,0.,4.8,,0,0.,4.8,0.,4.8
1979-08-06 06:18:52.840 ,6,0,,0,3.,4.8,0.,4.8,,0,0.,4.8,0.,4.8
1979-08-06 06:18:57.640 ,6,0,,0,3.,4.8,0.,4.8,,0,0.,4.8,0.,4.8
1979-08-06 06:19:02.440 ,6,0,,0,0.,4.8,0.,4.8,,0,0.,4.8,1.,4.8
1979-08-06 06:19:07.240 ,6,0,,0,0.,4.8,0.,4.8,,0,0.,4.8,0.,4.8
1979-08-06 06:19:12.040 ,5,0,,0,0.,4.8,0.,4.8,,0,0.,4.8,0.,4.8
1979-08-06 06:19:16.840 ,5,0,,0,0.,4.8,0.,4.8,,0,0.,4.8,0.,4.8
1979-08-06 06:19:21.640 ,5,0,,0,1.,4.8,0.,4.8,,0,0.,4.8,0.,4.8
1979-08-06 06:19:26.440 ,5,0,,0,1.,4.8,0.,4.8,,0,0.,4.8,0.,4.8
1979-08-06 06:19:31.240 ,5,0,,0,2.,4.8,0.,4.8,,0,0.,4.8,0.,4.8
1979-08-06 06:19:36.040 ,5,0,,0,8.,4.8,0.,4.8,,0,0.,4.8,0.,4.8
1979-08-06 06:19:40.840 ,5,0,,0,4.,4.8,0.,4.8,,0,0.,4.8,0.,4.8
1979-08-06 06:19:45.640 ,5,0,,0,1.,4.8,0.,4.8,,0,0.,4.8,0.,4.8
1979-08-06 06:19:50.440 ,5,0,,0,0.,4.8,0.,4.8,,0,0.,4.8,1.,4.8
1979-08-06 06:19:55.240 ,5,0,,0,0.,4.8,0.,4.8,,0,2.,4.8,0.,4.8
1979-08-06 06:20:00.040 ,4,0,,0,0.,4.8,0.,4.8,,0,0.,4.8,0.,4.8
1979-08-06 06:20:04.840 ,4,0,,0,0.,4.8,0.,4.8,,0,0.,4.8,0.,4.8
1979-08-06 06:20:09.640 ,4,0,,0,0.,4.8,0.,4.8,,0,0.,4.8,0.,4.8
1979-08-06 06:20:14.440 ,4,0,,0,5.,4.8,0.,4.8,,0,0.,4.8,0.,4.8
1979-08-06 06:20:19.240 ,4,0,,0,2.,4.8,0.,4.8,,0,0.,4.8,0.,4.8
1979-08-06 06:20:24.040 ,4,0,,0,2.,4.8,0.,4.8,,0,0.,4.8,0.,4.8
1979-08-06 06:20:28.840 ,4,0,,0,3.,4.8,2.,4.8,,0,0.,4.8,0.,4.8
1979-08-06 06:20:33.640 ,4,0,,0,7.,4.8,0.,4.8,,0,0.,4.8,0.,4.8
1979-08-06 06:20:38.440 ,4,0,,0,0.,4.8,0.,4.8,,0,0.,4.8,0.,4.8
1979-08-06 06:20:43.240 ,4,0,,0,0.,4.8,1.,4.8,,0,0.,4.8,0.,4.8
1979-08-06 06:20:48.040 ,3,0,,0,0.,4.8,0.,4.8,,0,0.,4.8,1.,4.8
1979-08-06 06:20:52.840 ,3,0,,0,0.,4.8,0.,4.8,,0,0.,4.8,0.,4.8
1979-08-06 06:20:57.640 ,3,0,,0,0.,4.8,0.,4.8,,0,0.,4.8,0.,4.8
1979-08-06 06:21:02.440 ,3,0,,0,4.,4.8,0.,4.8,,0,0.,4.8,0.,4.8
1979-08-06 06:21:07.240 ,3,0,,0,4.,4.8,0.,4.8,,0,0.,4.8,0.,4.8
1979-08-06 06:21:12.040 ,3,0,,0,2.,4.8,0.,4.8,,0,0.,4.8,0.,4.8
1979-08-06 06:21:16.840 ,3,0,,0,3.,4.8,0.,4.8,,0,0.,4.8,1.,4.8
1979-08-06 06:21:21.640 ,3,0,,0,0.,4.8,0.,4.8,,0,0.,4.8,0.,4.8
1979-08-06 06:21:26.440 ,3,0,,0,0.,4.8,0.,4.8,,0,0.,4.8,0.,4.8
1979-08-06 06:21:31.240 ,3,0,,0,0.,4.8,0.,4.8,,0,0.,4.8,0.,4.8
1979-08-06 06:21:36.040 ,2,0,,0,0.,4.8,0.,4.8,,0,0.,4.8,1.,4.8
1979-08-06 06:21:40.840 ,2,0,,0,0.,4.8,0.,4.8,,0,0.,4.8,1.,4.8
1979-08-06 06:21:45.640 ,2,0,,0,2.,4.8,0.,4.8,,0,0.,4.8,1.,4.8
1979-08-06 06:21:50.440 ,2,0,,0,2.,4.8,0.,4.8,,0,0.,4.8,0.,4.8
1979-08-06 06:21:55.240 ,2,0,,0,2.,4.8,0.,4.8,,0,0.,4.8,0.,4.8
1979-08-06 06:22:00.040 ,2,0,,0,5.,4.8,0.,4.8,,0,0.,4.8,0.,4.8
1979-08-06 06:22:04.840 ,2,0,,0,1.,4.8,0.,4.8,,0,0.,4.8,0.,4.8
1979-08-06 06:22:09.640 ,2,0,,0,1.,4.8,0.,4.8,,0,0.,4.8,0.,4.8
1979-08-06 06:22:14.440 ,2,0,,0,0.,4.8,0.,4.8,,0,0.,4.8,0.,4.8
1979-08-06 06:22:19.240 ,2,0,,0,0.,4.8,0.,4.8,,0,0.,4.8,0.,4.8
1979-08-06 06:22:24.040 ,1,0,,0,0.,4.8,0.,4.8,,0,0.,4.8,2.,4.8
1979-08-06 06:22:28.840 ,1,0,,0,0.,4.8,0.,4.8,,0,0.,4.8,0.,4.8
1979-08-06 06:22:33.640 ,1,0,,0,0.,4.8,0.,4.8,,0,1.,4.8,0.,4.8
1979-08-06 06:22:38.440 ,1,0,,0,1.,4.8,0.,4.8,,0,0.,4.8,0.,4.8
1979-08-06 06:22:43.240 ,1,0,,0,3.,4.8,0.,4.8,,0,0.,4.8,0.,4.8
1979-08-06 06:22:48.040 ,1,0,,0,3.,4.8,0.,4.8,,0,0.,4.8,0.,4.8
1979-08-06 06:22:52.840 ,1,0,,0,0.,4.8,0.,4.8,,0,0.,4.8,0.,4.8
1979-08-06 06:22:57.640 ,1,0,,0,0.,4.8,0.,4.8,,0,0.,4.8,0.,4.8
1979-08-06 06:23:02.440 ,1,0,,0,0.,4.8,0.,4.8,,0,0.,4.8,0.,4.8
1979-08-06 06:23:07.240 ,1,0,,0,0.,4.8,0.,4.8,,0,0.,4.8,0.,4.8
1979-08-06 06:23:12.040 ,0,0,,0,0.,4.8,0.,4.8,,0,0.,4.8,0.,4.8
1979-08-06 06:23:16.840 ,0,0,,0,0.,4.8,0.,4.8,,0,0.,4.8,1.,4.8
1979-08-06 06:23:21.640 ,0,0,,0,0.,4.8,0.,4.8,,0,0.,4.8,1.,4.8
1979-08-06 06:23:26.440 ,0,0,,0,1.,4.8,0.,4.8,,0,0.,4.8,1.,4.8
1979-08-06 06:23:31.240 ,0,0,,0,1.,4.8,0.,4.8,,0,0.,4.8,0.,4.8
1979-08-06 06:23:36.040 ,0,0,,0,1.,4.8,0.,4.8,,0,0.,4.8,0.,4.8
1979-08-06 06:23:40.840 ,0,0,,0,0.,4.8,0.,4.8,,0,0.,4.8,0.,4.8
1979-08-06 06:23:45.640 ,0,0,,0,2.,4.8,0.,4.8,,0,0.,4.8,1.,4.8
1979-08-06 06:23:50.440 ,0,0,,0,0.,4.8,1.,4.8,,0,0.,4.8,1.,4.8
1979-08-06 06:23:55.240 ,0,0,,0,0.,4.8,0.,4.8,,0,0.,4.8,0.,4.8
1979-08-06 06:24:00.040 ,0,0,,0,0.,4.8,0.,4.8,,0,0.,4.8,0.,4.8
1979-08-06 06:24:04.840 ,0,0,,0,1.,4.8,0.,4.8,,0,0.,4.8,3.,4.8
1979-08-06 06:24:09.640 ,0,0,,0,1.,4.8,0.,4.8,,0,0.,4.8,0.,4.8
1979-08-06 06:24:14.440 ,0,0,,0,8.,4.8,1.,4.8,,0,0.,4.8,0.,4.8
1979-08-06 06:24:19.240 ,0,0,,0,4.,4.8,0.,4.8,,0,0.,4.8,0.,4.8
1979-08-06 06:24:24.040 ,0,0,,0,0.,4.8,0.,4.8,,0,0.,4.8,0.,4.8
1979-08-06 06:24:28.840 ,0,0,,0,2.,4.8,0.,4.8,,0,0.,4.8,0.,4.8
1979-08-06 06:24:33.640 ,0,0,,0,2.,4.8,0.,4.8,,0,0.,4.8,0.,4.8
1979-08-06 06:24:38.440 ,0,0,,0,0.,4.8,0.,4.8,,0,0.,4.8,0.,4.8
1979-08-06 06:24:43.240 ,0,0,,0,0.,4.8,0.,4.8,,0,0.,4.8,0.,4.8
1979-08-06 06:24:48.040 ,1,0,,0,0.,4.8,0.,4.8,,0,0.,4.8,1.,4.8
1979-08-06 06:24:52.840 ,1,0,,0,0.,4.8,0.,4.8,,0,0.,4.8,1.,4.8
1979-08-06 06:24:57.640 ,1,0,,0,1.,4.8,0.,4.8,,0,0.,4.8,1.,4.8
1979-08-06 06:25:02.440 ,1,0,,0,1.,4.8,0.,4.8,,0,0.,4.8,0.,4.8
1979-08-06 06:25:07.240 ,1,0,,0,3.,4.8,0.,4.8,,0,0.,4.8,0.,4.8
1979-08-06 06:25:12.040 ,1,0,,0,3.,4.8,0.,4.8,,0,0.,4.8,0.,4.8
1979-08-06 06:25:16.840 ,1,0,,0,2.,4.8,0.,4.8,,0,0.,4.8,0.,4.8
1979-08-06 06:25:21.640 ,1,0,,0,0.,4.8,0.,4.8,,0,0.,4.8,0.,4.8
1979-08-06 06:25:26.440 ,1,0,,0,0.,4.8,0.,4.8,,0,0.,4.8,0.,4.8
1979-08-06 06:25:31.240 ,1,0,,0,0.,4.8,0.,4.8,,0,0.,4.8,0.,4.8
1979-08-06 06:25:36.040 ,2,0,,0,0.,4.8,0.,4.8,,0,0.,4.8,0.,4.8
1979-08-06 06:25:40.840 ,2,0,,0,0.,4.8,0.,4.8,,0,0.,4.8,0.,4.8
1979-08-06 06:25:45.640 ,2,0,,0,0.,4.8,0.,4.8,,0,0.,4.8,0.,4.8
1979-08-06 06:25:50.440 ,2,0,,0,5.,4.8,0.,4.8,,0,0.,4.8,0.,4.8
1979-08-06 06:25:55.240 ,2,0,,0,5.,4.8,1.,4.8,,0,0.,4.8,1.,4.8
1979-08-06 06:26:00.040 ,2,0,,0,2.,4.8,0.,4.8,,0,0.,4.8,0.,4.8
1979-08-06 06:26:04.840 ,2,0,,0,1.,4.8,0.,4.8,,0,0.,4.8,0.,4.8
1979-08-06 06:26:09.640 ,2,0,,0,2.,4.8,0.,4.8,,0,0.,4.8,1.,4.8
1979-08-06 06:26:14.440 ,2,0,,0,0.,4.8,0.,4.8,,0,0.,4.8,0.,4.8
1979-08-06 06:26:19.240 ,2,0,,0,0.,4.8,0.,4.8,,0,0.,4.8,1.,4.8
1979-08-06 06:26:24.040 ,3,0,,0,0.,4.8,0.,4.8,,0,0.,4.8,0.,4.8
1979-08-06 06:26:28.840 ,3,0,,0,0.,4.8,0.,4.8,,0,0.,4.8,0.,4.8
1979-08-06 06:26:33.640 ,3,0,,0,0.,4.8,0.,4.8,,0,0.,4.8,1.,4.8
1979-08-06 06:26:38.440 ,3,0,,0,3.,4.8,0.,4.8,,0,0.,4.8,1.,4.8
1979-08-06 06:26:43.240 ,3,0,,0,2.,4.8,0.,4.8,,0,0.,4.8,0.,4.8
1979-08-06 06:26:48.040 ,3,0,,0,2.,4.8,0.,4.8,,0,0.,4.8,0.,4.8
1979-08-06 06:26:52.840 ,3,0,,0,4.,4.8,0.,4.8,,0,0.,4.8,0.,4.8
1979-08-06 06:26:57.640 ,3,0,,0,4.,4.8,0.,4.8,,0,0.,4.8,0.,4.8
1979-08-06 06:27:02.440 ,3,0,,0,1.,4.8,0.,4.8,,0,0.,4.8,0.,4.8
1979-08-06 06:27:07.240 ,3,0,,0,0.,4.8,0.,4.8,,0,0.,4.8,0.,4.8
1979-08-06 06:27:12.040 ,4,0,,0,0.,4.8,0.,4.8,,0,0.,4.8,0.,4.8
1979-08-06 06:27:16.840 ,4,0,,0,0.,4.8,0.,4.8,,0,0.,4.8,0.,4.8
1979-08-06 06:27:21.640 ,4,0,,0,0.,4.8,0.,4.8,,0,0.,4.8,0.,4.8
1979-08-06 06:27:26.440 ,4,0,,0,1.,4.8,0.,4.8,,0,0.,4.8,0.,4.8
1979-08-06 06:27:31.240 ,4,0,,0,5.,4.8,0.,4.8,,0,0.,4.8,0.,4.8
1979-08-06 06:27:36.040 ,4,0,,0,2.,4.8,0.,4.8,,0,1.,4.8,0.,4.8
1979-08-06 06:27:40.840 ,4,0,,0,3.,4.8,0.,4.8,,0,0.,4.8,0.,4.8
1979-08-06 06:27:45.640 ,4,0,,0,3.,4.8,0.,4.8,,0,0.,4.8,1.,4.8
1979-08-06 06:27:50.440 ,4,0,,0,0.,4.8,0.,4.8,,0,0.,4.8,0.,4.8
1979-08-06 06:27:55.240 ,4,0,,0,1.,4.8,0.,4.8,,0,0.,4.8,0.,4.8
1979-08-06 06:28:00.040 ,5,0,,0,0.,4.8,0.,4.8,,0,0.,4.8,0.,4.8
1979-08-06 06:28:04.840 ,5,0,,0,1.,4.8,0.,4.8,,0,0.,4.8,0.,4.8
1979-08-06 06:28:09.640 ,5,0,,0,1.,4.8,0.,4.8,,0,1.,4.8,1.,4.8
1979-08-06 06:28:14.440 ,5,0,,0,1.,4.8,0.,4.8,,0,0.,4.8,1.,4.8
1979-08-06 06:28:19.240 ,5,0,,0,2.,4.8,0.,4.8,,0,0.,4.8,0.,4.8
1979-08-06 06:28:24.040 ,5,0,,0,3.,4.8,0.,4.8,,0,0.,4.8,0.,4.8
1979-08-06 06:28:28.840 ,5,0,,0,4.,4.8,0.,4.8,,0,0.,4.8,0.,4.8
1979-08-06 06:28:33.640 ,5,0,,0,2.,4.8,0.,4.8,,0,0.,4.8,0.,4.8
1979-08-06 06:28:38.440 ,5,0,,0,0.,4.8,0.,4.8,,0,0.,4.8,0.,4.8
1979-08-06 06:28:43.240 ,5,0,,0,0.,4.8,0.,4.8,,0,0.,4.8,0.,4.8
1979-08-06 06:28:48.040 ,6,0,,0,0.,4.8,0.,4.8,,0,0.,4.8,0.,4.8
1979-08-06 06:28:52.840 ,6,0,,0,0.,4.8,0.,4.8,,0,0.,4.8,0.,4.8
1979-08-06 06:28:57.640 ,6,0,,0,2.,4.8,0.,4.8,,0,0.,4.8,0.,4.8
1979-08-06 06:29:02.440 ,6,0,,0,1.,4.8,0.,4.8,,0,0.,4.8,0.,4.8
1979-08-06 06:29:07.240 ,6,0,,0,5.,4.8,0.,4.8,,0,0.,4.8,0.,4.8
1979-08-06 06:29:12.040 ,6,0,,0,3.,4.8,0.,4.8,,0,0.,4.8,1.,4.8
1979-08-06 06:29:16.840 ,6,0,,0,3.,4.8,0.,4.8,,0,0.,4.8,0.,4.8
1979-08-06 06:29:21.640 ,6,0,,0,2.,4.8,1.,4.8,,0,0.,4.8,0.,4.8
1979-08-06 06:29:26.440 ,6,0,,0,0.,4.8,0.,4.8,,0,0.,4.8,0.,4.8
1979-08-06 06:29:31.240 ,6,0,,0,0.,4.8,0.,4.8,,0,0.,4.8,0.,4.8
1979-08-06 06:29:36.040 ,7,0,,0,0.,4.8,0.,4.8,,0,0.,4.8,0.,4.8
1979-08-06 06:29:40.840 ,7,0,,0,0.,4.8,0.,4.8,,0,0.,4.8,0.,4.8
1979-08-06 06:29:45.640 ,7,0,,0,1.,4.8,0.,4.8,,0,0.,4.8,0.,4.8
1979-08-06 06:29:50.440 ,7,0,,0,7.,4.8,0.,4.8,,0,0.,4.8,0.,4.8
1979-08-06 06:29:55.240 ,7,0,,0,9.,4.8,0.,4.8,,0,0.,4.8,0.,4.8
1979-08-06 06:30:00.040 ,7,0,,0,8.,4.8,0.,4.8,,0,0.,4.8,1.,4.8
1979-08-06 06:30:04.840 ,7,0,,0,10.,4.8,0.,4.8,,0,0.,4.8,0.,4.8
1979-08-06 06:30:09.640 ,7,0,,0,6.,4.8,0.,4.8,,0,0.,4.8,0.,4.8